RH
6 7 6 6 6 5 6 6 6 7 9 15 19 18 16 16 17 14 10 9 8 10 9 8 8 8 10 15 24 32 32 25 19 21 23 25 31 33 29 27 29 30 33 36 32 29 27 26 28 31 34 34 32 31 32 31 29 22 17 15 13 12 13 14 15 17 19 21 24 26 28 29 29 27 27 28 23 17 13 12 13 14 16 17 15 13
7 7 7 6 6 6 6 6 6 6 9 13 18 19 17 21 23 15 10 8 10 12 11 8 8 9 13 19 30 40 39 29 22 24 26 26 35 43 42 39 37 36 38 37 33 29 28 29 31 31 30 32 33 33 33 31 26 20 16 15 15 16 18 20 24 29 32 39 48 50 47 47 44 41 45 46 39 36 31 23 21 23 25 27 28 25
8 7 7 7 6 6 6 6 7 6 8 9 13 21 25 25 21 12 9 9 11 14 12 9 10 15 21 27 32 38 41 34 26 27 27 29 41 53 53 46 42 41 41 38 36 34 34 37 37 33 32 34 34 32 31 28 23 19 17 18 23 27 30 35 38 40 43 53 71 80 78 73 65 58 59 62 61 62 60 49 42 40 39 37 36 36
8 8 7 7 6 7 6 6 7 7 7 7 12 24 27 20 15 10 9 9 11 14 13 12 18 24 27 29 29 33 35 31 29 30 30 38 53 59 54 48 45 43 43 44 44 42 42 42 38 35 36 36 33 31 30 26 22 21 21 27 36 38 42 50 50 49 52 56 66 78 86 91 91 84 79 76 73 76 80 74 63 58 56 52 46 43
9 8 7 6 7 6 6 7 7 7 8 8 15 24 19 12 12 10 9 11 11 12 13 18 26 27 27 30 29 30 29 27 30 34 39 52 58 57 52 48 48 51 54 54 49 47 45 41 39 37 37 34 32 34 34 29 25 27 31 40 48 44 47 60 60 56 58 56 55 60 68 78 88 94 92 85 79 85 92 85 70 61 59 58 54 48
9 9 8 7 8 6 7 8 7 9 8 8 14 17 11 10 12 10 10 12 13 16 16 25 42 42 32 31 28 25 24 26 33 39 49 59 59 55 51 51 59 65 63 56 49 48 46 42 41 39 36 34 35 39 39 31 29 35 44 57 66 62 60 66 65 60 60 60 59 59 65 76 87 92 91 86 83 86 90 87 79 69 64 61 58 55
9 10 10 8 9 8 9 8 8 10 9 10 12 10 10 12 12 10 11 14 19 23 18 25 51 56 36 25 22 20 22 27 37 50 60 63 58 54 57 66 73 68 56 50 48 46 43 41 40 37 36 36 39 44 41 34 36 45 51 63 79 82 75 69 66 59 55 62 68 64 70 83 93 94 88 85 88 92 91 91 89 80 72 69 65 62
10 12 12 11 11 11 10 9 9 10 10 11 10 10 12 12 11 11 12 15 19 24 25 26 37 39 28 22 21 18 22 34 48 62 64 60 59 67 77 80 69 56 49 47 47 44 41 40 38 38 39 41 47 48 39 38 47 51 52 61 78 85 79 73 74 62 45 56 75 74 73 78 82 87 84 82 90 97 99 96 90 80 76 78 73 66
14 13 13 15 15 14 13 11 10 9 10 11 10 12 14 13 12 11 13 16 19 32 38 28 23 29 28 21 20 23 31 47 58 59 58 61 71 81 78 66 52 48 48 46 44 42 41 40 39 41 44 49 54 46 36 47 63 64 56 60 70 73 69 66 67 54 35 51 79 83 81 82 80 84 87 86 88 91 92 89 81 79 84 85 79 72
15 10 12 17 18 17 15 14 12 9 10 10 10 15 16 14 11 11 18 16 21 44 47 29 25 36 35 21 23 41 52 57 58 54 58 65 71 68 56 49 48 48 47 44 43 42 42 41 42 46 50 56 55 43 45 64 80 79 65 63 66 61 57 53 46 37 31 48 77 87 87 87 84 88 92 90 92 90 89 88 84 86 93 90 85 85
12 9 14 19 20 21 19 18 13 9 11 10 12 18 15 13 11 17 24 16 28 56 46 27 25 32 43 37 31 48 57 52 50 52 57 58 55 51 47 48 49 46 45 45 43 43 42 42 46 52 57 61 52 47 65 83 91 91 80 74 74 69 65 55 39 34 35 49 73 86 89 91 90 94 95 90 90 92 92 96 96 96 100 97 94 97
13 11 16 20 22 24 22 20 14 11 12 11 17 20 14 13 14 22 28 17 34 56 36 21 23 27 46 46 33 42 48 39 40 49 55 55 52 50 49 49 47 46 47 45 44 44 44 49 56 60 65 62 53 62 87 97 97 101 98 93 90 84 73 56 42 39 44 59 79 87 87 90 92 95 97 91 86 88 92 98 101 100 101 100 98 99
12 12 16 19 21 23 22 18 14 13 12 14 22 19 16 26 28 30 37 29 32 39 26 21 28 30 38 36 32 41 38 32 41 53 57 54 52 52 50 49 49 49 47 45 47 48 51 61 68 71 72 63 59 81 100 100 100 102 97 90 82 74 61 51 50 51 56 71 85 88 86 85 87 88 90 88 83 83 88 94 94 93 95 98 99 98
12 16 17 17 19 21 20 17 14 13 12 17 24 18 20 36 41 45 52 45 34 29 23 26 35 38 32 29 34 35 30 38 52 59 56 52 52 52 51 53 52 49 47 49 51 53 59 68 74 76 73 62 68 94 101 93 94 88 73 62 58 57 54 53 59 64 74 84 87 87 86 85 85 82 81 84 84 82 83 87 89 88 92 96 100 100
18 21 17 15 16 17 18 17 14 14 15 21 24 20 21 28 38 50 56 48 39 33 30 33 41 41 32 29 33 31 36 50 58 57 53 50 51 52 54 56 52 49 51 54 55 60 67 74 78 74 66 64 76 92 93 85 78 65 51 48 54 60 59 59 68 79 89 91 89 88 87 88 87 82 81 87 91 89 83 82 85 88 92 94 97 100
20 19 14 14 14 15 20 18 14 17 21 25 25 22 22 23 29 41 43 36 38 46 48 44 39 33 29 32 35 40 54 62 59 54 52 53 54 56 57 54 52 54 58 59 61 67 74 80 80 70 67 80 89 87 79 67 57 49 44 48 58 63 62 68 80 91 94 91 90 89 88 90 89 85 91 97 98 98 92 86 85 86 88 91 93 96
23 19 14 16 15 17 22 18 16 21 23 25 27 23 24 26 28 38 44 39 43 56 53 38 32 31 31 36 39 47 61 62 57 56 56 59 60 57 56 53 56 62 62 63 68 75 83 84 76 72 83 99 101 88 71 53 45 44 47 55 64 66 69 81 92 95 93 90 90 89 88 93 93 92 98 102 102 102 99 98 98 92 85 87 91 93
28 23 16 17 18 19 22 18 16 22 25 28 30 28 26 28 32 42 54 52 52 59 49 31 34 40 38 41 42 45 53 56 58 62 62 61 59 56 56 59 64 67 66 68 74 81 84 77 73 86 102 100 87 70 53 43 41 46 56 65 72 76 80 88 94 95 92 90 88 88 90 94 98 100 101 101 101 102 100 99 99 92 82 81 88 93
27 26 20 18 20 21 20 18 18 21 26 30 33 33 31 32 36 41 49 51 54 63 55 40 41 45 40 39 41 45 54 61 63 64 63 62 61 60 62 66 69 68 69 73 79 80 72 69 85 101 96 78 62 50 41 38 41 50 65 72 75 84 89 91 94 94 92 91 90 91 94 98 101 102 102 101 101 102 100 97 93 87 83 81 83 91
23 28 27 20 20 21 18 18 20 21 26 29 31 34 34 35 39 42 45 49 56 67 68 58 51 48 43 37 40 51 61 63 63 64 65 66 65 66 69 71 71 71 72 71 73 74 67 71 86 82 63 53 51 47 42 40 42 51 63 69 75 86 91 90 91 91 92 93 94 95 97 101 103 102 101 102 101 100 99 99 97 94 93 92 90 94
21 29 32 23 20 22 19 18 19 23 28 28 27 31 35 35 37 44 47 45 53 68 76 73 60 46 41 40 43 54 59 58 63 66 67 67 67 69 73 73 72 74 73 66 65 69 68 65 60 51 47 49 49 46 43 41 42 46 51 59 73 87 92 90 88 91 95 95 95 97 99 102 104 103 102 102 101 100 100 100 101 100 100 101 101 100
23 28 31 25 21 21 18 17 18 23 27 26 27 32 35 34 39 54 59 48 50 63 66 70 69 54 44 44 47 52 55 58 66 68 67 68 71 74 75 73 72 70 67 64 65 66 61 55 51 53 56 56 54 53 49 43 40 40 41 49 64 80 91 94 92 94 98 97 96 98 100 103 103 102 102 101 102 101 100 100 100 100 101 101 102 101
25 29 31 28 25 22 20 18 20 24 23 24 30 31 30 34 39 54 61 52 56 66 60 65 75 62 46 42 45 49 55 62 67 69 70 72 74 77 76 73 70 65 60 63 66 63 58 56 57 59 61 63 65 64 58 50 44 41 40 42 52 68 85 96 99 96 96 98 99 98 101 103 102 102 102 101 102 101 100 100 98 99 101 100 100 100
26 29 31 29 24 20 19 22 25 27 26 26 27 23 24 28 31 43 54 58 71 79 72 75 75 55 38 38 43 50 58 66 70 70 73 76 77 78 76 73 71 65 61 62 63 61 59 59 59 61 65 70 73 71 67 59 53 49 43 39 44 59 80 98 102 98 96 97 98 100 102 103 102 103 103 101 101 100 100 101 100 99 99 99 99 100
28 29 31 32 32 30 26 26 26 26 27 26 22 21 23 22 30 47 56 66 80 75 69 78 70 43 35 41 45 53 64 69 71 72 76 81 83 82 79 75 72 70 67 65 64 61 61 63 66 68 71 75 77 77 74 68 61 54 46 40 40 49 73 97 102 99 99 99 100 101 102 103 103 103 102 101 101 101 100 101 101 101 100 99 100 100
31 32 33 34 40 43 40 34 29 27 28 25 21 23 24 23 33 47 59 74 78 64 61 73 65 45 41 45 49 59 68 71 72 74 79 85 87 85 82 79 79 79 75 70 68 67 70 76 77 75 75 78 82 83 81 75 65 54 46 42 40 43 64 92 102 100 101 101 101 102 102 103 103 102 101 101 101 101 101 101 101 102 101 101 100 100
36 35 33 34 35 36 35 32 29 30 30 25 23 24 25 29 35 46 64 72 62 59 64 61 56 56 54 52 59 68 74 76 77 80 85 89 89 86 83 83 87 88 80 75 76 76 81 87 86 84 82 81 85 89 86 77 64 54 47 43 41 40 58 88 102 101 101 102 101 102 102 103 102 102 102 102 103 103 101 101 102 103 102 101 100 99
36 35 32 33 32 31 31 29 27 27 26 25 27 25 24 29 34 43 55 50 46 67 70 49 53 70 66 60 68 75 78 80 81 86 90 91 90 86 84 87 92 90 82 80 82 86 92 96 93 90 86 85 92 95 87 74 62 54 48 44 41 39 55 86 102 101 102 103 102 102 102 102 102 102 103 102 103 105 102 101 103 104 102 101 101 99
35 36 33 32 32 30 29 28 24 23 24 26 28 25 24 30 35 40 41 37 47 69 68 56 65 74 66 66 73 75 78 82 85 90 91 89 87 85 86 93 96 91 85 84 86 89 94 96 95 94 89 89 96 98 87 70 57 50 45 43 41 37 53 85 101 101 102 103 102 102 101 101 102 102 104 103 103 105 103 101 103 103 102 102 101 98
35 36 35 35 34 30 27 26 24 23 25 26 25 25 28 32 36 38 38 41 50 59 64 69 71 66 64 72 75 76 81 86 88 88 86 86 87 87 92 99 99 94 90 89 89 91 94 95 94 93 90 90 97 98 87 67 51 45 41 40 39 36 52 84 100 100 102 103 103 102 100 101 102 102 103 104 103 104 104 102 102 101 101 102 100 96
34 35 35 38 37 30 25 26 26 26 28 28 27 28 30 32 35 39 43 47 52 55 59 66 67 65 68 73 75 79 85 88 87 82 81 86 89 91 97 101 99 96 94 94 93 94 98 100 97 95 92 92 95 94 80 60 43 36 35 38 38 36 53 85 100 98 100 104 103 101 100 100 102 102 103 103 102 103 104 104 103 100 100 102 101 95
33 35 35 40 41 31 26 28 28 29 29 29 29 30 31 33 38 45 48 50 54 56 59 65 71 72 72 74 78 82 86 87 84 81 83 87 90 95 101 102 101 100 99 101 101 100 103 103 101 101 98 93 92 87 68 47 32 26 30 36 36 36 57 88 100 96 99 104 103 102 100 100 102 103 102 102 101 100 102 104 103 101 100 102 101 94
34 37 37 43 44 33 29 32 32 33 36 34 33 33 34 38 43 48 51 54 58 61 66 73 75 74 74 78 82 84 87 89 88 86 87 90 95 100 101 102 103 102 103 104 103 102 103 102 101 103 101 96 91 78 53 33 24 22 27 33 34 40 64 91 100 97 98 101 103 103 100 100 104 103 102 103 102 100 100 100 99 102 102 102 100 93
33 37 38 43 44 37 33 34 35 40 44 41 36 35 39 44 48 52 55 60 64 68 72 74 73 74 78 81 84 89 93 95 93 87 87 94 100 102 101 102 103 103 103 104 104 102 101 101 101 101 99 92 81 62 38 24 21 21 24 30 33 44 70 94 101 99 98 100 103 103 100 100 104 104 102 104 103 101 99 96 97 102 103 100 96 91
34 35 37 40 42 41 37 38 46 50 45 39 38 39 44 49 52 56 60 66 71 74 75 74 75 80 83 83 86 92 98 100 92 83 87 99 103 101 102 102 102 103 103 102 103 102 101 101 101 101 95 78 58 43 29 22 21 20 22 27 32 46 73 96 102 100 100 101 102 102 101 100 102 103 104 104 103 102 99 96 97 101 102 101 98 90
37 39 41 42 43 42 40 44 54 52 42 39 42 43 47 52 55 62 68 72 75 77 79 80 84 88 86 84 89 96 100 97 85 80 91 102 100 99 102 102 103 104 104 103 102 101 101 102 102 101 89 59 36 29 26 22 21 19 20 26 33 49 76 97 102 100 101 102 102 101 100 99 98 100 103 104 104 101 97 96 99 101 100 100 97 92
42 44 46 47 47 46 46 48 51 49 45 45 45 46 51 54 59 70 78 78 77 80 85 91 93 89 84 87 94 99 97 91 83 85 98 102 97 96 101 103 103 102 102 102 102 101 101 101 98 93 72 39 24 25 25 22 21 17 18 27 37 55 81 98 101 100 100 101 101 101 100 99 96 97 102 104 103 100 96 97 101 101 98 94 92 93
44 46 49 53 52 50 53 57 59 58 54 49 47 49 54 57 65 77 83 80 80 84 90 95 94 87 85 92 100 101 99 96 94 94 99 101 98 99 102 100 97 98 101 103 104 101 94 87 81 70 48 27 22 24 23 22 21 16 19 31 43 62 86 99 100 100 101 100 100 100 100 100 99 98 100 102 101 96 94 98 102 100 99 96 93 95
45 47 50 55 55 52 57 65 66 60 54 50 50 52 57 64 74 82 82 78 81 90 95 96 91 85 87 96 101 102 101 100 100 99 98 100 101 101 101 96 93 97 101 100 99 92 81 72 63 45 29 22 22 21 22 23 20 16 22 36 49 68 90 101 101 100 101 100 100 101 100 100 100 100 99 99 97 93 93 99 102 100 100 98 94 96
47 50 51 54 54 53 58 64 63 57 52 52 53 57 64 70 77 85 87 84 86 95 98 94 87 83 89 98 102 101 101 100 100 100 99 101 101 97 96 97 99 102 103 96 84 69 61 59 50 31 21 22 22 20 22 22 17 16 27 41 52 70 93 102 101 100 101 100 100 101 100 100 100 101 100 96 93 94 99 101 99 98 99 99 97 98
49 53 54 53 54 56 58 61 61 57 55 56 59 63 69 74 79 89 95 94 95 99 95 87 81 82 92 101 101 100 101 101 101 100 98 100 100 96 96 98 97 94 91 84 72 63 60 53 38 26 21 21 21 21 22 21 17 18 32 46 55 73 95 103 101 101 101 100 100 100 100 101 100 100 100 97 94 98 103 101 96 97 100 101 100 98
54 56 56 57 60 61 59 59 62 61 58 61 66 68 73 82 91 97 98 97 98 96 86 78 79 87 98 103 101 100 101 100 101 101 99 99 100 99 100 101 98 89 74 59 54 61 62 44 25 21 21 19 21 22 21 21 17 21 38 50 55 73 96 104 102 101 100 100 101 100 100 101 100 99 100 99 98 100 103 101 99 100 101 100 97 95
59 60 60 62 64 63 62 66 71 70 64 66 69 72 81 93 99 98 98 97 93 84 76 76 84 95 101 101 100 101 101 100 100 100 100 101 101 102 102 100 96 85 69 59 59 60 51 33 20 20 20 19 20 21 21 20 18 25 44 52 54 73 97 104 102 101 101 100 100 100 100 100 100 100 99 99 100 101 101 101 101 101 99 96 95 97
59 62 65 66 68 70 71 70 70 69 67 71 77 82 88 93 93 93 94 88 78 72 75 84 94 100 103 101 101 101 99 99 100 100 101 102 99 96 90 83 79 70 62 66 70 56 37 25 21 19 19 20 20 21 21 20 18 28 46 52 54 73 96 105 103 101 101 101 100 100 100 100 100 100 99 99 100 101 101 101 101 102 99 95 97 100
60 65 69 69 70 73 72 67 68 72 76 82 86 87 89 89 87 84 80 73 70 75 86 96 101 102 102 101 100 100 98 100 102 99 97 95 86 75 65 60 64 66 61 59 56 40 25 21 20 19 19 19 19 21 21 19 20 32 47 52 56 75 96 104 103 101 100 101 100 100 101 100 100 100 100 100 100 99 101 101 101 101 99 98 100 101
60 64 67 65 62 63 65 67 75 82 84 85 85 84 85 83 78 72 69 72 80 88 95 100 102 103 104 102 101 100 98 98 99 91 82 73 60 47 41 42 48 54 53 48 40 29 22 20 20 20 19 18 19 21 20 19 23 35 48 52 59 78 96 102 103 102 101 100 100 100 100 100 100 100 100 100 100 98 97 99 101 101 100 101 102 100
59 62 63 60 60 66 73 78 85 88 87 85 82 79 76 71 68 71 76 83 91 94 96 100 102 103 102 100 100 100 95 91 88 77 61 47 35 29 34 41 44 44 42 37 30 24 21 20 20 20 19 19 20 20 19 20 26 38 50 54 61 80 96 101 103 102 100 100 101 100 100 100 100 100 100 100 100 98 94 96 99 101 100 97 93 95
63 65 64 64 71 79 82 85 86 80 73 75 77 73 68 66 70 78 84 88 92 93 93 97 100 104 106 101 97 96 87 72 63 55 42 30 26 27 32 36 39 38 33 26 23 22 22 21 21 22 21 20 21 20 20 21 28 40 50 54 64 83 95 99 102 102 100 101 101 100 100 101 100 100 101 100 100 100 98 98 98 100 102 96 86 88
64 65 68 75 83 86 86 89 87 74 63 66 69 67 65 69 77 83 86 88 90 91 92 92 90 92 96 91 79 71 60 43 34 33 30 26 27 29 28 27 29 29 26 23 23 23 22 22 22 22 22 22 22 21 20 21 30 44 53 56 68 85 92 96 101 102 100 101 101 100 100 101 100 100 101 100 100 99 98 97 96 95 97 96 93 96
65 67 76 87 93 94 94 95 93 86 77 71 68 65 68 75 81 84 86 87 89 93 97 87 64 49 47 45 37 33 30 26 25 27 28 27 28 28 27 26 25 24 23 23 22 22 23 24 24 24 24 23 22 21 20 25 37 51 57 61 73 88 92 93 99 102 101 101 101 101 100 100 100 101 101 101 101 99 97 97 94 86 79 81 92 100
68 76 91 98 98 98 96 90 86 86 80 71 66 68 72 79 83 83 85 90 93 89 77 57 33 18 16 18 19 21 24 25 27 29 28 28 28 27 26 26 24 23 23 23 22 23 24 25 25 26 25 23 22 20 23 36 52 60 60 65 79 92 93 93 99 103 101 100 102 102 100 100 101 99 95 94 95 98 100 100 98 90 82 85 96 99
Wind_Speed
10 9 8 7 9 12 12 11 10 10 12 13 13 15 17 18 21 23 26 28 30 32 30 25 24 24 24 26 24 23 24 22 23 26 30 33 33 31 25 21 22 24 25 25 30 38 45 51 54 56 58 60 63 65 68 71 72 70 67 64 63 61 59 58 56 53 52 49 45 42 43 45 47 48 47 46 48 51 52 52 50 46 43 42 45 48
10 7 7 10 11 11 10 10 11 12 13 14 13 16 17 18 24 25 26 29 29 31 32 25 25 26 25 25 22 22 23 21 24 27 30 33 33 31 26 22 23 24 25 28 36 44 49 52 54 57 61 64 66 68 71 71 71 67 63 61 59 57 55 54 52 50 49 48 44 41 40 42 44 45 45 46 47 47 48 47 47 46 42 39 39 42
8 7 10 11 11 11 9 11 14 14 14 15 14 15 17 19 26 30 29 30 28 29 30 26 26 26 23 24 22 22 24 24 26 28 31 33 31 29 26 23 23 24 29 36 42 46 50 52 55 60 64 66 69 71 70 69 67 64 61 58 55 53 51 49 47 46 46 45 44 42 41 42 44 44 44 44 45 46 46 45 44 45 44 41 37 37
9 10 11 11 11 11 12 14 15 14 15 17 15 13 16 20 25 32 35 33 28 26 27 25 27 26 21 20 19 19 21 24 26 28 30 31 29 27 24 22 24 30 37 41 44 47 50 54 57 62 66 69 72 71 69 67 64 61 58 55 53 51 48 46 44 43 42 43 43 43 42 42 43 43 44 44 44 45 46 47 45 45 45 44 41 36
10 10 10 11 11 13 15 17 17 18 17 18 15 11 18 23 24 30 36 34 31 24 19 21 26 23 13 11 15 15 17 23 26 27 28 27 26 23 22 24 31 36 39 42 45 48 51 56 60 64 69 72 72 69 67 66 62 58 56 54 53 50 46 44 42 41 42 44 45 46 45 44 44 44 44 44 43 43 45 47 47 46 45 45 43 38
11 10 9 10 12 15 17 18 19 20 21 20 16 14 21 25 26 31 31 31 33 22 15 20 19 11 7 9 14 17 22 27 27 26 25 23 22 22 25 30 34 36 39 42 45 47 52 57 62 67 71 72 70 68 67 65 60 56 55 54 53 50 46 44 42 42 44 46 47 47 47 47 46 46 46 46 45 44 45 49 51 50 47 45 43 39
12 12 12 11 12 15 17 20 22 22 22 21 19 21 24 24 29 31 27 28 28 20 20 21 11 11 15 13 13 21 29 31 26 22 20 20 22 25 28 31 33 35 39 42 44 49 56 60 65 69 72 71 69 67 65 62 56 54 53 53 53 52 50 47 44 44 46 47 46 46 45 45 46 49 50 48 45 42 43 48 51 51 48 45 43 40
13 14 13 13 13 15 18 21 23 23 22 21 22 25 25 28 31 30 27 26 25 24 23 14 7 15 17 9 16 30 33 27 21 16 17 21 24 25 27 29 32 36 39 42 48 54 57 62 67 70 71 70 67 65 62 57 52 51 51 51 52 52 51 50 48 47 48 48 46 44 43 43 45 47 47 44 41 40 41 44 46 46 44 42 43 41
13 15 15 15 16 16 17 20 23 25 23 23 25 26 27 30 31 30 26 21 20 20 17 10 8 12 12 16 29 32 24 18 14 15 19 22 22 23 25 29 32 35 40 47 52 55 59 65 69 70 69 67 64 64 60 54 51 50 50 50 50 49 49 49 49 50 51 49 46 44 43 44 45 44 42 40 40 41 42 43 42 40 38 38 40 39
14 17 16 16 16 16 17 18 22 26 24 25 27 27 29 30 31 27 16 13 14 11 12 12 9 7 12 29 31 16 9 10 12 15 18 19 20 22 25 28 32 38 46 51 55 59 64 68 69 69 66 63 63 62 56 52 52 52 52 51 50 50 50 51 52 53 52 49 46 45 45 46 46 44 42 41 40 40 40 40 38 35 34 35 34 33
15 17 15 15 15 16 18 17 21 25 25 26 26 29 32 34 32 15 4 10 10 7 8 8 10 13 11 18 18 10 8 13 18 19 19 19 19 22 26 30 38 45 50 55 59 64 67 68 67 65 63 62 63 57 50 50 52 52 53 52 52 53 54 55 56 55 53 49 47 44 44 44 43 42 42 42 42 40 37 35 34 33 32 32 31 28
16 17 15 14 15 18 19 18 21 24 24 24 23 28 32 35 29 7 3 10 4 5 8 10 18 21 8 10 16 15 16 24 30 25 20 20 21 23 29 37 45 49 54 59 63 65 66 65 64 62 60 62 61 52 46 49 51 51 51 51 53 55 57 59 58 56 52 48 46 45 44 43 43 43 43 44 44 41 38 34 33 32 31 30 28 27
19 18 15 14 16 18 19 21 23 22 23 23 21 25 24 20 18 6 4 8 5 11 14 14 22 22 14 16 18 17 24 33 31 22 20 22 24 29 36 43 49 53 60 64 63 64 64 61 60 59 60 61 56 48 46 49 50 50 50 52 56 58 59 59 57 53 50 47 46 47 47 47 47 47 46 47 47 43 40 37 35 33 31 30 27 26
21 16 14 15 16 17 19 23 25 24 24 22 18 22 16 5 6 6 5 4 9 20 24 22 21 17 15 15 14 22 33 33 23 17 20 23 26 34 42 46 53 60 65 63 62 63 62 59 58 59 60 58 51 46 47 50 51 53 55 57 59 58 56 54 52 49 48 48 48 48 50 50 51 51 49 48 48 46 42 39 37 35 32 30 29 27
16 11 14 19 18 18 19 21 24 26 24 18 15 18 13 5 3 5 4 3 9 23 33 31 17 7 8 11 17 27 29 22 16 16 22 28 34 40 45 50 59 64 63 60 62 62 58 57 59 60 59 53 47 46 48 50 53 56 58 58 57 53 50 48 47 47 48 49 49 50 51 51 51 51 48 45 44 46 46 43 41 40 36 32 31 30
11 12 19 21 19 18 18 19 25 25 18 12 14 16 14 13 10 12 14 16 18 19 24 24 15 12 13 19 25 24 15 15 18 26 35 39 42 45 50 59 63 60 58 59 61 59 56 57 59 58 54 47 45 48 51 53 55 57 58 56 53 50 48 47 47 47 49 50 51 52 51 50 49 46 41 40 39 40 44 47 47 47 42 37 35 33
10 17 22 19 17 16 15 20 25 22 15 13 16 17 17 18 16 15 17 20 18 12 12 15 17 17 18 23 25 18 13 22 29 37 42 42 46 53 59 63 59 54 57 59 57 55 55 58 57 54 48 45 48 53 56 57 56 57 56 53 51 49 47 47 47 48 50 51 52 53 50 46 45 40 34 33 34 33 35 39 41 44 44 41 38 35
16 24 26 18 14 15 17 23 26 21 19 17 18 19 19 16 14 10 9 10 9 7 10 15 16 14 15 16 17 19 24 31 35 38 42 47 55 60 60 57 53 54 58 56 53 53 55 56 54 49 46 49 54 56 57 57 55 54 53 51 51 50 47 46 47 50 52 53 53 51 48 43 40 35 30 29 29 29 29 31 32 36 41 43 41 37
20 25 26 19 14 18 22 25 25 21 19 18 19 21 17 12 13 10 6 5 6 5 8 16 20 16 11 11 17 27 29 29 34 41 47 53 55 54 53 51 52 57 56 53 54 55 54 53 49 47 51 54 56 55 55 54 53 53 52 51 50 48 47 48 49 51 52 53 53 50 46 41 36 31 28 27 27 28 29 30 31 32 36 40 42 41
20 18 19 21 21 23 26 24 22 20 19 20 21 21 17 14 15 15 12 9 8 6 6 14 18 5 6 12 28 28 24 30 43 50 50 50 49 47 47 49 55 56 54 54 54 53 53 52 50 52 55 55 54 54 54 53 53 53 51 50 48 48 49 49 50 52 54 54 52 48 43 38 33 30 27 25 26 28 30 30 31 32 33 37 40 41
21 14 18 28 29 25 24 23 22 22 21 22 23 21 20 21 20 19 21 18 13 8 3 6 11 4 5 21 30 20 24 40 49 50 49 48 47 45 46 52 56 55 54 54 52 52 52 52 53 55 54 53 54 55 54 53 53 52 51 49 49 50 50 50 51 54 55 54 51 45 40 36 31 29 27 24 25 28 28 28 29 30 31 33 36 37
20 17 24 33 32 29 27 24 20 19 19 22 23 22 22 26 24 15 13 17 15 11 8 7 12 18 23 26 23 23 37 49 49 47 48 47 45 45 51 57 57 55 55 53 51 52 53 53 54 55 54 55 56 56 55 54 53 53 52 51 51 51 51 51 54 55 55 53 49 43 38 33 29 26 25 24 24 25 25 25 26 27 29 31 32 34
21 22 27 31 31 30 28 22 15 14 19 21 21 25 27 27 24 15 11 18 18 17 20 17 14 22 27 23 26 39 51 51 48 47 47 46 46 49 56 59 57 55 54 51 51 52 52 53 55 56 57 58 59 59 58 56 55 55 54 53 52 53 53 53 55 57 55 51 46 41 35 30 27 24 24 23 23 23 23 24 24 24 26 29 30 29
21 20 25 33 36 33 27 20 14 14 20 25 27 32 32 29 29 24 22 25 23 21 22 14 11 23 29 30 40 51 54 50 48 48 47 47 49 54 59 59 56 54 52 51 52 52 53 55 57 58 60 61 61 62 61 59 58 56 55 54 52 53 54 55 57 56 54 48 43 38 32 28 25 23 22 22 22 22 22 23 24 23 24 26 26 22
19 17 22 28 27 27 25 21 22 27 29 33 36 35 32 32 32 27 26 25 21 25 21 8 12 34 41 42 50 55 55 51 49 49 48 47 52 57 58 56 53 50 50 51 53 54 55 57 58 60 61 62 63 63 63 62 60 57 55 54 53 53 54 56 57 55 52 46 40 35 30 25 22 21 20 20 20 20 20 21 22 23 23 23 22 20
21 20 22 19 10 11 16 18 26 34 37 39 38 32 32 35 32 28 27 20 18 27 23 14 25 47 51 49 55 59 56 52 51 51 50 50 55 57 55 52 50 47 48 52 54 56 57 57 59 61 63 64 64 64 64 63 61 58 55 53 53 54 55 56 57 54 49 42 37 33 28 23 21 19 18 18 18 17 16 16 18 19 20 21 22 22
23 23 23 21 19 20 23 27 30 33 37 40 37 33 34 35 34 30 25 23 27 32 31 32 38 46 49 52 57 58 53 51 53 52 52 55 57 55 53 51 47 46 50 54 55 56 57 58 60 62 64 66 66 65 65 63 61 58 55 54 53 53 54 56 56 53 46 39 34 30 26 22 20 18 17 17 16 14 13 14 15 16 18 21 24 25
25 27 25 25 27 26 28 32 32 31 34 35 33 37 40 37 35 32 29 34 37 28 30 44 44 39 48 55 56 54 52 53 54 53 55 60 58 54 54 50 47 48 53 55 55 56 57 59 61 63 65 67 67 66 65 64 61 58 56 55 53 53 54 55 55 51 43 37 32 28 24 21 19 17 16 15 14 13 12 13 14 15 18 21 24 26
26 28 27 27 30 30 31 33 32 30 30 31 34 40 39 33 32 34 34 38 36 29 35 48 45 41 50 55 54 54 53 53 55 56 59 59 56 55 54 49 48 51 55 56 57 58 59 61 63 65 67 68 68 68 66 64 61 58 56 54 52 53 54 54 54 49 41 35 30 26 22 19 17 16 14 13 13 12 12 13 14 15 17 20 24 25
25 27 28 28 33 37 36 33 31 28 30 37 39 34 30 30 31 33 34 35 34 37 42 43 41 45 52 54 53 53 52 53 57 59 60 57 55 55 52 48 49 54 57 58 58 59 60 62 64 66 68 70 69 69 67 64 61 58 56 53 52 52 52 53 53 47 39 33 29 24 20 17 16 15 13 13 12 12 12 13 13 13 14 17 21 23
25 28 29 29 36 40 37 35 34 32 36 40 34 27 30 35 34 32 33 34 35 40 43 41 43 52 56 54 51 50 53 58 60 61 59 56 55 54 50 48 51 55 58 59 59 60 60 62 65 67 69 70 70 69 66 64 62 58 55 53 52 52 52 53 51 45 36 30 26 23 20 18 16 14 12 12 11 12 13 13 12 11 12 13 16 18
27 29 31 31 35 39 40 37 37 40 41 34 28 32 38 36 33 33 33 34 36 41 43 43 47 55 56 51 50 54 59 61 61 61 58 56 55 51 48 49 53 57 59 59 59 59 59 61 63 65 68 70 70 68 65 64 62 58 54 52 51 51 51 52 50 42 33 27 24 22 20 19 17 15 12 11 10 10 11 12 12 12 11 10 10 12
26 28 32 30 30 38 43 38 38 40 31 23 29 39 38 32 32 34 35 38 41 40 41 45 50 52 50 50 55 60 62 61 60 59 56 55 52 48 47 50 55 58 58 58 59 59 59 61 62 64 67 68 67 66 64 63 61 57 53 51 50 50 50 51 49 40 31 25 21 20 20 19 19 16 14 12 9 8 9 10 11 11 10 8 7 9
26 28 31 27 26 36 42 40 38 27 14 21 37 39 31 28 31 36 42 46 46 44 46 49 48 46 47 53 59 61 60 59 57 56 54 51 47 46 49 54 57 58 58 58 59 59 60 62 63 64 66 66 66 65 63 61 59 55 51 49 48 48 49 51 48 39 29 23 20 20 20 19 19 18 15 13 10 7 8 9 9 9 9 7 7 8
27 28 29 28 28 34 38 33 23 13 17 34 40 31 26 28 33 44 53 52 48 49 50 44 39 43 52 58 59 58 58 57 55 55 51 46 44 49 54 57 58 58 58 58 59 59 61 63 64 65 65 65 65 64 62 60 57 53 49 47 46 47 48 50 47 38 28 22 19 19 19 19 19 18 16 13 10 7 8 8 9 9 9 7 7 8
27 26 27 30 29 30 32 24 14 20 35 39 31 26 27 33 42 52 56 55 53 48 39 34 39 51 58 59 57 57 57 56 55 54 49 45 48 53 55 57 58 57 58 58 58 59 61 63 64 63 63 64 64 62 60 58 55 52 48 45 45 46 47 49 46 36 27 22 20 19 19 18 18 17 16 13 10 8 8 8 8 10 9 8 8 8
27 26 27 28 25 24 28 28 28 33 35 29 25 27 32 42 51 52 51 55 49 34 28 37 51 60 59 57 57 57 56 57 57 53 48 48 52 54 54 56 56 57 58 58 58 60 61 62 62 61 62 64 62 60 58 56 54 51 47 44 44 45 46 48 44 35 26 23 21 19 18 17 16 15 14 12 10 8 8 7 8 10 10 9 7 6
30 29 27 25 25 27 27 26 23 20 20 23 28 31 38 49 54 50 50 48 36 27 37 52 58 59 58 57 58 58 57 57 56 54 51 51 54 55 56 56 57 57 58 59 60 63 64 63 61 61 63 63 60 58 56 54 53 50 45 42 43 44 46 47 44 34 25 22 20 18 16 15 14 12 11 10 9 8 7 8 8 9 10 8 6 4
29 29 27 24 26 29 27 20 14 12 19 28 32 38 48 53 53 48 40 35 35 42 54 59 57 57 57 57 58 58 56 55 56 55 54 54 55 57 57 57 58 59 59 60 62 64 64 62 61 63 64 61 59 57 55 52 51 47 43 41 42 43 46 47 44 34 24 21 18 15 14 13 11 9 8 9 8 7 7 8 8 8 8 7 3 1
28 27 26 25 27 30 28 23 19 21 27 31 36 46 53 54 52 40 25 30 49 59 58 57 57 57 57 58 58 57 54 54 56 56 54 55 57 59 58 59 60 60 60 62 64 65 63 61 62 64 63 60 58 56 53 51 48 44 41 40 41 43 45 47 42 31 22 19 16 13 12 10 8 7 6 7 7 7 8 8 7 6 6 4 0 2
30 26 25 26 28 29 27 26 28 30 31 34 42 52 54 52 47 35 28 43 61 61 56 56 56 56 58 59 57 56 54 53 54 55 55 57 59 60 60 60 61 61 62 64 64 62 60 61 64 64 61 58 56 54 52 50 47 43 39 39 41 43 45 46 40 28 19 16 13 10 9 8 7 6 5 6 7 6 7 7 6 6 6 2 2 2
29 26 26 28 28 26 26 28 30 29 31 40 49 51 50 48 43 39 46 57 59 57 57 57 55 57 59 58 57 57 56 55 55 56 58 59 60 61 62 62 62 64 64 64 61 57 57 62 64 62 59 57 55 52 50 48 45 42 39 39 41 42 45 45 37 24 16 12 9 8 8 7 7 6 6 6 6 4 4 5 5 7 5 1 3 3
26 27 29 28 27 27 26 22 20 23 35 47 50 49 49 49 46 50 56 57 55 55 56 55 56 58 58 57 58 58 57 56 56 57 59 61 62 62 62 62 63 64 64 62 58 55 59 63 64 61 59 56 53 50 48 45 43 40 38 39 40 42 44 44 34 20 13 9 7 6 6 5 6 6 5 5 4 3 3 4 6 7 3 4 2 4
25 27 29 28 26 27 26 23 24 32 42 47 47 48 51 52 52 54 56 55 54 54 54 55 58 57 57 58 59 59 58 57 57 58 60 62 63 62 62 63 63 62 60 56 54 56 61 63 62 60 57 54 51 48 45 43 41 39 37 38 40 42 44 42 31 17 10 7 5 4 4 5 5 4 4 4 3 3 5 6 5 4 3 4 1 6
27 27 28 29 29 28 30 33 39 44 46 46 48 49 50 51 52 53 53 53 53 52 53 56 57 57 57 58 58 59 59 57 58 60 61 62 63 63 63 63 60 58 55 53 54 59 62 62 61 59 56 52 49 46 43 41 40 38 37 38 40 42 43 39 27 14 7 5 4 3 4 4 3 3 3 3 4 5 5 4 3 1 4 4 4 7
27 28 27 30 33 35 38 40 42 46 49 50 49 48 49 51 52 51 51 51 52 52 54 55 56 58 58 57 58 60 58 57 60 61 61 61 63 63 63 61 57 55 54 54 57 60 62 61 59 57 54 51 47 44 41 39 39 38 37 38 40 42 42 37 24 11 6 4 3 3 3 2 1 0 2 3 4 4 2 3 2 2 5 3 4 8
30 30 30 33 37 42 45 44 44 47 50 50 49 49 50 51 50 50 51 52 53 54 54 55 57 58 58 57 58 59 59 59 61 62 61 61 62 62 61 58 56 56 56 57 59 61 61 60 58 55 53 50 46 43 40 38 38 37 36 38 40 41 40 34 21 8 5 4 3 3 3 2 3 2 1 3 3 2 2 4 5 3 2 2 4 7
31 31 34 39 42 43 45 47 48 49 49 47 48 50 51 50 51 52 52 52 53 56 57 58 58 58 58 57 57 58 59 60 60 61 62 63 63 63 61 58 58 58 59 60 62 60 59 58 56 53 51 48 44 42 40 38 37 36 35 37 39 40 38 31 18 7 6 5 4 3 3 4 4 3 2 2 2 1 3 3 5 5 4 5 6 7
31 34 38 42 44 45 47 49 51 52 51 49 48 49 50 50 52 53 53 54 56 58 60 60 59 58 57 56 56 57 59 60 60 61 62 64 64 63 61 61 61 61 61 61 60 58 57 56 53 51 49 46 43 41 39 37 36 35 35 37 38 39 37 29 16 5 6 7 5 4 5 5 4 2 2 2 3 2 1 1 2 3 3 5 8 11
34 38 41 42 44 47 48 47 48 50 52 52 51 50 50 51 52 54 55 56 58 59 60 60 60 58 56 55 56 57 59 61 62 62 63 64 63 62 62 63 62 62 61 60 58 57 55 52 50 49 46 44 42 39 38 37 36 35 36 37 37 38 36 27 15 4 8 8 6 6 6 5 4 3 2 3 5 3 1 1 1 2 3 5 9 12
36 39 41 42 43 44 44 44 45 46 48 50 50 50 51 52 54 55 56 57 59 60 59 59 58 57 57 57 57 59 60 62 63 63 63 63 61 61 62 62 62 62 61 59 57 55 53 50 48 46 44 42 40 38 37 37 36 36 36 36 37 37 34 27 15 3 9 10 8 8 7 6 6 5 3 4 5 4 3 3 1 3 5 6 7 9
Wind_Direction
346 338 335 359 13 14 13 5 4 2 347 331 322 318 316 315 317 324 327 327 328 319 313 314 306 300 301 298 291 285 280 283 295 301 301 298 293 288 287 293 299 299 297 299 303 307 311 313 313 313 313 312 312 312 314 314 315 315 314 314 313 312 312 312 312 311 310 308 305 300 296 292 290 290 290 287 283 281 281 281 280 278 274 271 268 265
344 339 1 25 22 15 10 357 359 3 349 334 321 314 317 316 312 318 323 325 325 314 310 312 303 299 301 296 288 281 278 284 295 300 302 299 292 289 287 290 295 295 295 299 305 311 313 311 312 314 315 315 314 315 315 315 315 315 315 314 314 313 313 313 313 312 311 309 306 301 295 291 288 288 287 286 285 284 283 283 282 280 275 270 266 264
347 9 25 23 13 5 352 353 3 0 347 337 328 315 315 320 316 318 324 324 321 312 309 313 305 301 303 296 281 272 276 282 289 299 305 297 290 289 287 288 293 296 300 305 310 313 311 310 312 315 315 316 316 315 315 315 315 315 315 315 314 313 313 312 311 310 308 306 304 300 296 292 289 287 285 285 285 285 285 284 282 280 278 273 266 260
8 24 24 13 1 351 344 353 359 351 345 342 336 318 313 322 321 320 324 324 317 310 310 313 305 302 302 296 284 274 276 282 289 300 303 292 286 286 285 288 297 303 306 309 311 311 311 313 314 314 315 316 316 315 315 316 317 316 317 316 313 313 312 311 309 307 306 305 303 301 298 293 289 286 285 284 284 285 285 283 280 278 278 277 271 263
13 17 12 5 354 349 353 356 352 346 348 347 341 324 317 323 321 320 323 319 312 310 312 312 308 306 305 300 301 298 295 297 297 298 295 286 284 284 287 298 305 307 308 309 312 314 316 315 312 313 315 316 316 316 317 319 319 318 318 315 313 313 311 309 309 308 307 306 306 304 301 297 292 288 285 284 285 285 284 282 280 277 276 276 273 267
2 1 351 352 350 352 358 356 353 349 345 345 341 324 320 322 323 324 323 315 312 313 314 318 316 304 303 313 308 307 310 308 301 294 290 286 287 291 300 306 307 306 308 313 318 319 315 312 312 316 318 317 317 317 319 320 319 317 316 314 313 313 311 309 309 311 312 308 305 305 302 300 297 293 290 289 289 286 281 279 279 279 278 276 273 268
351 346 331 334 343 346 351 351 354 350 341 339 333 323 323 323 326 327 322 312 310 305 306 316 308 276 293 302 298 309 315 309 300 292 289 290 295 302 306 305 303 306 313 318 317 312 310 313 318 319 317 316 317 318 319 319 316 314 314 312 312 311 310 309 308 312 315 312 306 303 301 298 295 293 293 291 289 286 281 277 277 279 280 279 276 270
345 341 327 322 324 328 339 346 351 347 336 331 328 325 325 327 329 327 318 308 301 299 302 304 295 291 290 291 310 316 313 301 292 290 292 299 304 305 301 298 303 311 316 314 309 310 315 320 320 317 315 315 316 318 319 317 314 313 313 312 311 310 310 310 308 310 316 316 308 301 299 298 295 294 295 293 287 282 281 279 279 281 284 283 278 272
339 340 331 322 317 318 332 342 347 344 332 328 328 325 325 329 330 324 315 303 296 301 293 273 306 305 287 309 319 313 300 287 291 301 304 305 302 297 295 302 311 314 312 311 314 319 322 320 317 315 315 316 316 318 319 318 314 314 314 313 311 312 313 313 310 311 316 315 307 300 297 297 297 295 293 293 289 283 281 281 284 286 287 286 281 274
333 334 330 323 316 315 325 333 339 339 330 327 328 324 324 329 330 325 312 298 296 290 263 267 327 347 303 312 316 305 283 291 304 306 302 297 293 296 303 310 312 310 313 318 323 322 319 316 315 315 315 315 316 319 320 318 315 313 314 313 313 314 315 315 313 313 313 311 306 301 297 296 296 293 288 287 286 284 284 283 285 286 287 289 286 276
326 329 325 319 313 313 318 320 329 333 328 326 328 327 327 332 338 335 284 307 304 265 249 260 325 341 316 308 307 293 291 314 320 311 302 305 308 311 312 311 312 316 321 323 321 317 315 315 315 316 315 315 318 321 320 316 314 313 312 312 312 313 313 313 313 312 311 309 306 302 298 297 295 290 285 283 281 281 281 280 281 282 283 288 287 276
327 330 327 320 313 311 311 311 322 328 327 327 329 331 333 337 346 356 260 326 299 255 286 272 308 323 300 283 298 292 302 321 323 317 316 322 318 312 311 314 320 323 323 319 316 315 316 317 318 317 317 318 321 323 318 314 312 311 311 311 311 311 311 311 310 310 309 307 307 304 301 298 295 289 282 279 278 277 275 274 276 276 277 281 283 278
329 330 329 325 317 311 309 315 325 327 327 328 328 338 344 343 348 353 320 331 275 282 293 282 308 315 285 287 300 300 314 322 322 319 319 316 308 308 314 319 321 319 317 315 315 318 320 321 320 319 319 321 323 320 315 313 312 312 313 312 310 309 308 309 308 308 308 307 307 305 304 303 300 294 285 278 275 273 271 269 271 272 273 274 277 277
331 330 330 330 321 313 313 323 331 329 327 326 327 343 354 360 348 327 307 317 292 297 295 293 308 300 282 297 304 310 316 318 318 316 311 308 310 315 318 317 314 313 314 316 317 321 322 321 320 319 321 322 322 318 314 313 313 313 313 311 311 310 309 308 308 308 309 309 308 307 307 306 303 298 292 284 275 269 266 265 268 271 270 270 271 272
330 319 329 332 321 313 313 324 332 325 321 317 317 335 339 328 315 268 262 282 285 294 297 300 304 271 276 297 303 314 314 308 311 309 305 305 305 307 308 308 310 312 315 317 320 322 322 320 319 320 322 323 321 317 314 312 312 313 313 313 313 313 311 310 310 311 311 311 310 310 309 307 303 299 295 289 278 268 263 262 265 267 265 265 265 265
311 296 323 328 317 313 310 320 328 323 318 306 305 318 319 317 298 258 265 276 276 287 294 294 284 260 273 292 311 324 305 283 299 300 300 301 300 302 306 309 313 316 318 320 323 324 322 321 320 322 325 326 322 318 315 315 315 316 315 316 316 316 315 315 314 314 313 313 313 312 310 307 303 299 293 286 280 271 265 263 264 263 259 258 258 257
298 301 324 326 318 316 306 315 326 321 313 299 297 307 312 315 304 275 278 285 284 284 281 278 271 269 285 302 320 331 295 286 295 296 299 304 306 309 311 313 315 318 321 323 325 325 323 322 324 327 328 327 323 320 318 319 319 318 318 319 320 319 319 318 317 316 316 316 314 313 312 308 303 299 290 280 277 274 267 264 264 260 253 252 254 254
305 308 324 329 321 319 310 316 323 318 308 297 294 306 313 314 308 287 282 299 299 278 278 279 268 275 298 305 318 321 306 301 300 302 309 313 312 312 313 314 317 321 324 326 326 325 324 324 328 330 328 324 322 320 320 320 320 320 321 322 322 321 320 320 320 320 319 318 316 314 313 309 303 296 285 275 273 273 267 263 262 257 249 248 251 252
314 310 321 330 326 320 317 317 320 317 307 297 297 305 309 308 302 292 274 291 294 275 287 287 282 285 283 285 318 321 313 313 316 318 320 318 316 315 315 316 319 324 327 327 327 326 326 329 331 328 325 323 322 322 324 325 324 324 324 323 322 322 323 323 323 322 321 319 318 316 314 310 304 294 281 273 271 270 267 264 263 259 251 248 249 251
319 307 309 319 320 317 318 318 318 314 305 302 304 303 303 301 298 292 280 271 273 275 286 292 296 283 193 300 325 321 312 323 326 323 321 319 318 317 316 320 324 327 328 328 328 328 329 331 329 326 325 326 326 327 329 329 328 327 326 325 325 326 325 324 324 324 323 321 319 316 314 310 302 292 283 277 273 272 270 268 268 265 258 252 250 249
317 298 290 307 315 317 320 321 314 306 302 306 306 301 300 303 302 295 286 278 267 263 278 303 300 247 237 314 324 313 309 322 324 321 319 318 316 314 317 324 327 327 327 329 330 330 331 330 328 329 330 330 330 330 331 331 330 328 329 329 329 329 328 326 326 326 324 321 319 317 314 309 300 292 288 284 278 275 274 271 269 268 262 256 253 250
313 298 291 303 315 319 321 322 312 304 306 309 306 299 300 303 299 289 285 286 268 250 263 284 285 283 293 313 323 315 318 323 322 320 318 316 314 316 320 325 326 327 328 330 332 332 332 332 332 334 336 335 335 335 334 332 330 330 332 333 332 330 330 329 328 328 325 321 319 317 314 308 300 292 290 287 280 277 274 268 263 263 261 256 254 253
314 307 299 302 312 318 323 324 311 302 311 313 307 304 305 305 296 277 273 291 283 268 275 276 276 286 296 311 321 322 324 325 322 319 317 315 315 318 322 324 326 327 329 332 333 332 333 334 336 338 338 338 338 337 336 334 332 333 333 334 333 332 332 332 330 328 325 321 319 317 314 308 300 293 290 286 282 278 273 266 260 257 257 256 254 255
318 315 309 309 315 320 325 325 308 305 316 318 315 312 312 310 303 291 282 286 286 279 278 273 272 283 292 306 316 323 327 324 320 319 317 315 316 320 323 325 327 329 331 333 333 333 335 337 338 339 340 339 338 338 337 336 335 334 332 332 334 334 334 333 331 328 325 322 319 318 315 308 299 294 290 285 281 279 275 269 261 254 253 254 253 251
317 314 311 314 321 327 331 330 322 320 320 317 316 316 315 312 307 295 285 284 284 282 276 235 262 287 296 307 315 324 328 323 321 320 316 316 320 323 325 327 329 330 331 333 333 334 337 338 339 340 340 339 339 338 338 337 336 333 332 333 334 335 335 333 331 328 325 322 320 319 316 309 300 295 291 285 280 279 279 276 268 258 254 253 246 235
311 307 308 308 304 313 314 311 315 315 312 311 313 316 316 312 307 296 287 280 278 285 279 244 267 290 300 307 316 325 327 322 321 319 316 319 323 325 327 329 329 329 331 332 333 335 336 337 338 340 340 340 339 338 338 337 335 333 332 333 335 335 335 334 332 330 326 323 320 320 317 310 303 296 290 284 280 280 281 279 272 263 255 248 238 228
309 305 308 301 288 290 295 300 308 308 305 307 312 315 315 313 308 299 285 277 282 287 286 280 284 293 301 309 320 327 325 321 320 319 319 322 325 326 328 329 329 329 330 332 333 334 335 336 337 338 339 339 339 339 337 335 334 333 333 334 335 335 335 334 333 331 327 324 321 320 318 311 304 298 290 284 280 280 281 278 272 264 254 244 236 230
311 307 311 307 299 299 302 306 310 308 303 305 309 314 316 314 309 299 287 290 294 289 289 297 299 299 303 314 324 326 323 322 321 320 321 324 326 328 329 329 328 329 331 332 333 333 333 334 335 336 337 338 338 338 337 335 335 334 334 334 335 335 335 335 334 332 329 325 323 321 318 313 306 297 289 282 280 279 279 277 274 269 259 248 240 236
315 310 314 313 308 308 309 312 315 313 308 307 309 315 318 317 311 304 301 304 299 283 287 299 302 301 308 318 324 322 323 323 320 320 322 324 326 328 329 329 328 329 331 332 332 332 332 332 333 334 335 336 337 337 336 336 335 335 334 334 335 335 335 335 335 334 330 327 324 321 319 315 307 298 287 280 279 280 280 280 276 271 265 256 248 243
317 312 315 313 309 312 316 320 321 317 312 312 315 320 323 321 316 312 312 312 300 290 290 294 297 303 312 319 321 321 323 322 319 322 324 325 328 329 329 328 327 329 332 332 332 332 331 332 333 334 335 335 336 336 336 336 336 335 335 335 335 335 335 336 337 335 331 328 325 321 321 317 307 296 285 280 281 285 289 289 283 277 273 265 256 249
319 315 316 314 310 315 324 327 325 321 317 316 320 327 328 327 323 318 316 313 307 302 299 298 302 310 315 318 319 321 323 321 323 326 327 328 329 330 329 327 327 329 331 331 331 331 331 331 332 333 334 335 335 335 336 337 336 336 335 335 335 335 335 337 338 335 331 328 324 321 320 316 307 293 279 274 278 287 296 299 296 292 286 276 263 251
321 317 317 317 312 316 327 329 325 323 320 319 325 330 330 331 327 320 318 316 311 306 305 307 312 315 317 319 321 322 322 323 326 328 329 329 330 330 328 326 327 330 330 331 331 330 330 331 332 333 334 334 334 335 336 337 337 336 336 336 335 334 335 338 339 336 331 326 321 318 317 314 307 293 274 265 268 280 293 298 298 297 292 284 266 247
324 317 318 320 311 315 327 329 324 324 323 323 329 329 329 330 326 320 320 320 317 311 309 312 314 315 319 322 322 322 323 326 328 329 329 330 330 328 326 325 328 330 330 330 330 330 330 331 332 333 333 333 334 335 337 338 337 336 336 335 334 334 336 339 340 336 330 324 318 314 313 311 305 294 276 264 263 274 287 291 292 293 291 281 256 237
330 321 319 318 307 313 325 327 324 326 325 322 326 328 327 327 327 324 322 322 320 317 314 314 314 317 322 323 323 323 325 327 328 329 331 331 329 327 325 326 329 330 331 330 330 331 331 331 332 333 332 333 335 336 337 338 337 336 336 335 334 335 337 340 340 336 329 323 317 311 309 306 301 292 277 263 263 276 286 286 289 295 293 279 252 237
334 327 322 319 311 312 321 327 328 324 317 320 324 328 328 327 327 326 323 322 321 319 317 316 316 319 322 323 324 326 327 327 328 331 334 332 327 325 326 328 330 331 331 331 331 332 332 332 333 332 332 334 336 337 337 337 336 336 336 335 334 336 338 340 341 336 328 322 316 310 307 302 297 290 275 262 259 271 279 282 294 303 295 274 253 240
336 331 324 322 319 317 321 326 319 309 316 322 326 329 329 328 329 328 323 322 323 321 317 316 319 322 324 325 327 328 327 328 330 334 336 332 328 328 328 330 332 332 332 332 332 332 332 332 333 332 333 335 337 337 336 336 336 336 336 335 335 337 339 341 341 336 328 322 318 313 309 303 296 287 273 258 252 262 271 280 299 304 288 266 253 248
339 334 328 325 323 320 315 311 308 311 318 326 329 331 332 330 331 328 320 319 324 322 318 321 324 325 326 327 328 329 330 331 333 336 336 331 330 331 331 332 333 333 333 333 333 332 332 332 333 333 334 337 337 336 336 336 337 336 336 335 336 338 340 342 341 337 328 323 321 317 312 306 298 287 269 249 245 259 271 285 300 297 282 268 258 259
341 337 332 323 320 320 313 308 313 316 319 326 327 330 331 328 329 327 318 318 325 327 323 325 325 325 327 329 330 332 334 333 332 334 334 331 331 333 333 333 334 334 334 334 333 332 333 333 333 334 336 337 337 336 336 336 337 336 335 335 337 339 341 343 343 338 329 324 322 318 315 310 303 290 264 240 240 260 277 293 300 290 281 278 274 269
342 338 333 323 320 321 314 305 306 299 307 319 323 326 328 327 328 327 320 317 326 326 324 325 326 326 329 331 332 334 335 332 330 332 333 332 332 333 334 334 335 335 334 334 333 333 333 334 334 335 337 338 336 336 336 336 336 336 335 336 338 341 342 344 343 338 329 325 323 319 317 314 308 296 263 236 242 267 285 294 290 282 282 288 288 208
343 340 336 329 327 326 318 305 299 303 313 320 323 326 327 327 329 331 322 318 324 324 324 326 327 329 331 332 333 335 335 331 330 332 332 331 332 333 334 334 334 334 335 334 334 334 334 334 335 336 338 337 336 336 335 336 336 336 335 336 339 342 344 345 342 336 328 325 322 318 319 318 312 300 267 242 251 275 290 287 279 288 304 309 310 121
344 342 338 335 331 330 325 313 308 314 322 325 327 327 326 327 331 332 321 319 323 324 325 328 329 330 331 332 333 334 332 330 329 330 331 331 332 333 334 334 334 335 335 334 334 335 334 334 335 337 337 337 336 336 335 335 336 336 336 337 340 344 345 344 341 335 327 323 319 316 320 321 314 303 276 262 269 282 287 281 283 314 327 327 125 94
343 340 340 339 334 330 328 318 312 319 328 328 326 326 326 330 333 327 321 322 324 325 327 329 330 331 331 333 334 333 331 330 330 330 331 332 333 334 334 334 334 335 334 335 336 335 332 332 335 337 337 337 336 335 335 336 336 336 336 338 342 345 345 343 340 334 324 319 315 316 323 324 317 309 292 285 291 294 287 283 301 323 322 170 128 43
343 340 339 339 334 330 329 322 315 322 327 326 325 325 328 332 330 324 323 325 326 327 329 329 331 332 333 333 333 332 332 332 331 330 330 332 333 334 334 334 334 334 334 335 335 333 331 332 336 336 336 337 336 335 335 336 335 335 336 338 343 346 345 342 340 334 321 314 313 319 326 324 317 313 307 306 308 303 292 294 306 313 290 162 123 2
345 342 338 336 335 331 325 320 321 324 324 323 324 325 327 328 327 326 327 328 328 330 331 330 332 334 334 334 333 333 333 333 331 330 330 331 333 333 334 334 334 334 335 334 331 330 332 334 335 336 336 336 336 335 336 336 335 335 337 339 344 346 344 342 339 331 315 307 310 319 322 317 313 311 315 320 316 308 308 308 314 307 226 186 309 342
344 345 338 333 332 328 320 321 326 326 325 325 326 328 329 329 330 330 330 329 331 332 333 332 333 334 335 334 334 333 333 332 330 330 330 331 332 334 335 335 335 334 334 333 330 331 333 334 335 335 335 336 335 335 336 336 336 336 337 339 344 345 343 341 338 327 302 290 294 306 310 307 303 310 332 339 322 314 312 316 333 302 199 218 301 333
342 344 338 332 331 329 327 331 332 328 328 330 333 334 333 332 332 333 332 332 333 334 335 335 334 334 335 335 335 334 333 331 330 331 332 332 333 335 336 336 335 334 333 332 332 333 334 334 335 334 334 335 336 336 337 338 338 337 337 340 343 343 342 342 338 321 280 266 273 291 294 277 228 264 17 12 348 336 345 6 22 159 193 228 320 331
341 340 336 334 334 331 331 336 334 329 331 336 337 336 335 334 334 334 334 334 335 336 337 336 335 336 336 336 335 334 332 331 332 332 333 334 335 336 337 336 335 335 334 333 333 334 334 334 334 334 334 336 336 337 339 340 339 337 337 340 341 341 341 342 338 312 255 239 242 266 272 220 178 170 88 39 25 356 340 13 45 101 184 291 330 327
341 340 337 336 335 333 333 336 335 332 335 339 338 337 337 336 335 335 336 337 338 337 337 337 337 337 337 336 335 334 332 332 333 333 334 336 337 338 337 336 336 335 334 334 334 335 335 334 334 334 335 336 337 338 339 340 338 337 338 339 339 339 341 344 341 306 235 216 219 232 222 200 184 168 134 77 54 337 290 345 48 54 7 338 338 340
341 340 339 337 336 337 339 339 336 334 338 341 340 339 338 337 336 337 338 339 339 339 338 338 338 338 337 336 335 334 333 334 335 336 336 338 339 338 337 337 337 336 335 335 335 335 335 334 334 335 336 337 338 338 339 339 338 338 339 338 338 339 341 346 345 304 224 206 206 206 199 198 197 183 162 135 97 54 318 4 55 32 347 332 333 342
343 342 342 340 338 339 340 339 336 334 336 339 340 340 339 338 337 338 339 340 340 340 339 338 338 339 338 338 338 337 336 336 337 338 338 339 339 338 338 338 337 336 335 335 335 335 335 335 336 337 337 337 339 339 339 339 339 339 338 337 337 339 342 346 348 300 217 205 199 199 201 199 191 190 180 138 116 97 62 67 27 297 309 323 325 335
345 345 345 342 338 338 338 338 336 334 334 337 339 339 339 339 338 339 340 341 341 340 340 339 339 340 340 341 341 340 339 338 339 339 339 339 339 338 338 338 337 336 336 336 336 336 337 337 338 337 337 339 339 339 340 340 339 338 337 336 338 341 343 345 347 291 209 205 201 198 200 193 175 168 170 143 126 126 125 109 27 309 321 328 322 331